Location: Philipsburg
(46.3359°N, 113.2993°W)
Time: 14:01:03
(UTC+00:00)

Envisat - Pass Details

Date: 22 January 2022
Orbit: 764 x 765 km, 98.2° (Epoch: 17 May)

Event Time Altitude Azimuth Distance (km) Brightness Sun altitude
Rises 11:48:00 0° 21° (NNE) 3,241 6.6 -34.1°
Reaches altitude 10° 11:50:31 10° 30° (NNE) 2,310 5.8 -33.6°
Maximum altitude 11:55:09 35° 96° (E) 1,227 4.4 -32.8°
Drops below altitude 10° 11:59:45 10° 162° (SSE) 2,296 5.6 -32.0°
Sets 12:02:14 0° 171° (S) 3,217 6.3 -31.6°
